Weather History for Del Bajio, Mexico

Change the Weather History Date:

Tuesday, July 16, 2013

  Actual Average Record
Temperature  
Mean Temperature 70 °F -  
Max Temperature 78 °F 81 °F 91 °F (2005)
Min Temperature 62 °F 58 °F 42 °F (1997)
Cooling Degree Days 5    
Growing Degree Days 20 (Base 50)    
Moisture  
Dew Point 59 °F    
Average Humidity 73    
Maximum Humidity 94    
Minimum Humidity 44    
Precipitation  
Precipitation 0.00 in - - ()
Sea Level Pressure  
Sea Level Pressure 30.05 in    
Wind  
Wind Speed 5 mph ()    
Max Wind Speed 10 mph    
Max Gust Speed -    
Visibility 7.8 miles    
Events Thunderstorm    
Averages and records for this station are not official NWS values.
T = Trace of Precipitation, MM = Missing Value Source: Averaged Metar Reports

Daily Weather History Graph

Daily Weather History Graph

Search for Another Location

Airport:

Trip Planner

Search our weather history database for the weather conditions in past years. The results will help you decide how hot, cold, wet, or windy it might be!

Date:

Astronomy

Jul. 16, 2013 Rise Set
Actual Time 7:13 AM CDT 8:30 PM CDT
Civil Twilight 6:49 AM CDT 8:54 PM CDT
Nautical Twilight 6:20 AM CDT 9:23 PM CDT
Astronomical Twilight 5:50 AM CDT 9:53 PM CDT
Moon 2:30 PM CDT (7/16) 1:23 AM CDT (7/16)
Length of Visible Light 14h 05m
Length of Day
13h 16m
First Quarter, 56% of the Moon is Illuminated
Jul 16
First Quarter
Jul 22
Full
Jul 29
Last Quarter
Aug 6
New
Aug 14
First Quarter

Hourly Weather History & Observations

Time (CDT) Temp. Dew Point Humidity Pressure Visibility Wind Dir Wind Speed Gust Speed Precip Events Conditions
12:40 AM 69.8 °F 55.4 °F 60% 29.68 in 8.0 mi East 8.1 mph - N/A   Mostly Cloudy
3:55 AM 64.4 °F 60.8 °F 88% 29.71 in 8.0 mi Calm Calm - N/A   Mostly Cloudy
5:08 AM 64.4 °F 60.8 °F 88% 30.18 in 8.0 mi Calm Calm - N/A   Mostly Cloudy
5:44 AM 62.6 °F 60.8 °F 94% 30.18 in 8.0 mi WSW 6.9 mph - N/A   Mostly Cloudy
6:42 AM 62.6 °F 60.8 °F 94% 29.74 in 8.0 mi WNW 6.9 mph - N/A   Mostly Cloudy
7:45 AM 62.6 °F 59.0 °F 88% 30.18 in 5.0 mi Calm Calm - N/A   Mostly Cloudy
8:45 AM 64.4 °F 59.0 °F 83% 30.21 in 7.0 mi West 5.8 mph - N/A   Mostly Cloudy
9:50 AM 71.6 °F 60.8 °F 69% 29.83 in 7.0 mi West 5.8 mph - N/A   Mostly Cloudy
10:50 AM 73.4 °F 60.8 °F 65% 30.24 in 7.0 mi West 5.8 mph - N/A   Mostly Cloudy
11:50 AM 73.4 °F 59.0 °F 61% 30.24 in 6.0 mi WSW 5.8 mph - N/A   Mostly Cloudy
12:45 PM 73.4 °F 59.0 °F 61% 29.81 in 6.0 mi West 6.9 mph - N/A   Overcast
1:50 PM 69.8 °F 60.8 °F 73% 30.22 in 6.0 mi Calm Calm - N/A Thunderstorm Overcast
2:43 PM 66.2 °F 59.0 °F 78% 30.24 in 8.0 mi ESE 10.4 mph - N/A   Overcast
3:45 PM 64.4 °F 60.8 °F 88% 29.85 in 9.0 mi NNW 6.9 mph - N/A   Mostly Cloudy
4:46 PM 75.2 °F 57.2 °F 53% 30.18 in 9.0 mi WNW 10.4 mph - N/A   Mostly Cloudy
5:42 PM 78.8 °F 55.4 °F 44% 30.15 in 10.0 mi WNW 8.1 mph - N/A   Mostly Cloudy
6:47 PM 75.2 °F 55.4 °F 50% 29.73 in 10.0 mi West 10.4 mph - N/A   Mostly Cloudy
7:46 PM 73.4 °F 57.2 °F 57% 30.18 in 10.0 mi SSW 4.6 mph - N/A   Mostly Cloudy
8:46 PM 69.8 °F 55.4 °F 60% 30.21 in 8.0 mi West 5.8 mph - N/A   Mostly Cloudy
9:47 PM 66.2 °F 60.8 °F 83% 29.83 in 8.0 mi ENE 3.5 mph - N/A   Mostly Cloudy
10:43 PM 66.2 °F 59.0 °F 78% 30.24 in 8.0 mi NNE 4.6 mph - N/A   Mostly Cloudy
11:48 PM 62.6 °F 59.0 °F 88% 30.27 in 8.0 mi NNE 3.5 mph - N/A   Mostly Cloudy